Theta_e
346 347 347 347 345 347 347 348 346 343 344 345 342 343 343 349 350 349 350 350 350 350 349 349 349 350 349 348 349 349 348 347 346 345 344 344 343 342 340 340 339 340 344 345
342 346 344 343 342 345 347 348 348 343 345 345 346 345 341 343 345 349 350 350 350 350 350 349 350 350 350 349 350 350 350 348 347 346 345 344 344 343 341 339 344 345 344 344
341 341 342 345 346 346 345 348 347 346 349 347 347 347 346 344 345 344 343 347 349 349 349 349 350 350 350 350 349 350 350 349 348 347 347 345 345 343 340 336 342 342 339 336
340 339 342 342 343 343 348 343 346 350 349 351 348 352 345 344 346 345 344 345 347 348 350 349 349 350 350 348 348 350 350 350 348 348 346 345 344 345 344 336 333 333 338 341
342 339 341 343 343 342 343 345 346 350 345 345 348 350 345 349 350 347 344 344 346 347 348 348 349 349 348 349 348 349 349 349 348 347 348 345 345 346 344 342 339 341 343 342
338 339 337 339 341 341 343 343 341 340 340 345 344 347 344 340 346 345 345 344 344 346 347 348 348 347 349 349 348 348 349 348 347 345 348 347 346 346 346 344 344 343 341 338
335 338 337 339 341 340 340 342 344 346 346 347 341 344 341 337 338 342 345 344 344 344 346 347 347 347 347 348 348 348 349 349 347 344 346 347 347 346 345 345 344 342 339 337
337 340 335 336 339 340 340 342 344 347 346 338 342 347 343 340 341 340 343 345 345 344 346 347 347 348 347 348 348 349 349 349 347 342 343 345 346 346 346 345 344 343 341 342
335 338 331 335 336 337 341 342 337 336 338 344 343 342 339 338 339 340 342 344 345 345 344 345 348 348 348 348 348 349 348 349 347 341 343 344 345 346 346 345 345 343 340 341
324 333 329 332 336 337 336 334 341 337 346 347 345 345 345 339 339 340 340 341 343 343 344 344 346 347 348 348 348 348 347 346 348 341 342 344 344 345 345 345 345 343 341 343
321 321 323 329 330 336 338 338 335 336 338 343 342 341 335 338 336 338 339 340 340 341 343 344 344 345 347 349 347 347 343 348 348 341 342 343 344 345 345 345 345 343 342 344
319 318 321 326 324 325 332 337 334 335 337 333 332 337 332 335 335 337 340 341 343 343 342 342 342 344 345 345 347 348 346 348 347 342 342 343 344 345 344 344 344 343 343 343
320 318 319 321 320 322 330 331 332 328 330 335 337 336 332 337 337 339 341 343 342 343 343 343 343 345 346 346 346 348 344 348 346 344 344 343 342 343 343 343 344 343 343 343
322 316 319 323 320 320 326 327 331 330 333 333 334 334 334 333 339 339 340 341 342 341 344 345 346 347 346 346 348 345 346 348 345 344 343 343 343 342 342 343 344 343 343 343
316 319 318 318 319 321 324 326 330 330 331 330 329 331 332 331 334 338 341 341 340 340 343 344 347 347 346 346 346 346 346 347 345 344 344 342 343 342 342 343 342 342 343 344
313 318 317 321 319 320 322 320 326 328 326 329 328 329 328 328 331 335 339 340 341 341 342 345 345 347 346 345 346 348 347 347 346 345 343 341 342 341 343 340 341 342 343 343
317 315 314 318 319 319 321 319 319 320 324 325 331 326 330 336 337 338 338 339 342 342 342 344 345 345 346 345 347 347 347 347 347 344 340 341 342 341 339 340 340 342 339 339
318 315 313 319 319 322 320 318 319 320 321 323 327 327 329 334 337 338 340 341 342 340 343 343 345 345 346 345 348 348 346 348 348 342 339 339 339 340 340 341 341 342 345 347
313 315 318 320 318 320 324 323 322 321 323 320 324 325 332 338 339 339 338 340 340 342 344 344 344 345 345 347 349 349 348 348 348 344 339 340 340 341 341 341 341 341 345 345
313 312 319 318 323 323 322 323 325 321 326 323 328 330 333 339 337 336 338 339 343 345 345 346 346 347 346 347 349 349 349 348 348 346 339 339 339 340 341 342 344 343 346 345
315 315 319 321 322 322 319 319 322 328 326 328 339 341 336 337 335 336 340 343 345 346 346 346 347 347 346 346 348 349 349 348 349 349 342 338 338 338 338 339 341 344 349 346
315 315 318 318 323 324 318 322 328 322 323 332 337 336 335 337 338 338 342 343 343 346 347 347 347 348 347 347 348 349 349 349 349 349 349 345 340 339 340 340 339 339 348 349
316 315 318 318 318 318 318 317 317 319 326 333 338 340 336 336 337 338 340 343 342 343 346 347 347 347 348 348 348 348 348 349 349 349 349 349 349 346 344 342 344 342 346 350
315 314 315 316 316 315 317 317 318 320 322 334 341 342 342 341 341 342 340 340 339 342 342 344 345 347 348 347 348 348 348 348 349 348 349 349 350 348 346 345 346 347 348 349
313 313 313 313 313 316 317 317 317 319 322 329 335 339 340 342 343 342 342 341 341 340 339 339 341 344 347 347 348 349 348 348 349 349 348 349 350 349 349 348 348 348 347 348
312 312 314 314 315 315 315 314 316 318 320 323 324 333 332 335 336 337 338 342 344 344 343 342 344 346 348 350 348 349 348 349 349 349 348 348 349 349 349 350 349 349 349 350
Wind_Speed
6 2 6 9 7 4 2 1 4 3 3 1 5 4 8 19 21 19 25 28 32 35 30 28 27 26 23 24 22 21 21 18 21 26 27 27 25 22 20 16 18 16 13 11
4 9 8 6 4 5 3 3 8 4 1 3 4 8 8 12 22 28 29 32 37 36 34 32 30 30 26 24 24 24 21 20 19 23 23 24 23 21 19 19 20 18 18 16
7 5 9 5 5 4 3 4 4 4 2 2 3 6 6 8 17 26 32 38 40 42 41 36 34 33 29 28 25 25 23 19 20 20 20 19 19 20 22 23 21 19 19 20
5 6 5 2 5 7 4 6 8 5 2 3 0 5 6 6 8 12 23 28 34 38 40 38 36 36 33 28 25 25 24 21 19 22 20 21 19 19 21 24 21 18 21 21
8 7 4 5 4 5 4 3 1 3 4 4 1 2 7 2 7 12 19 26 31 39 40 40 40 35 32 31 27 26 23 22 19 20 21 21 21 20 16 19 22 20 17 18
7 2 5 5 2 3 8 5 7 5 3 3 2 3 8 4 6 6 11 24 35 38 40 39 39 34 36 34 30 28 24 20 20 18 21 23 21 18 17 17 16 15 14 15
2 3 2 5 4 5 6 6 3 4 4 6 3 1 10 8 7 6 10 24 33 39 39 43 41 38 36 36 32 28 26 24 20 18 20 21 19 18 18 16 14 12 10 7
6 7 8 4 6 6 3 5 5 5 3 5 1 6 7 7 7 16 12 25 29 31 36 40 41 41 37 37 33 29 28 24 20 18 18 20 20 19 19 16 14 12 10 8
6 6 1 4 5 11 4 4 3 6 3 2 4 8 10 7 5 12 17 18 25 32 37 37 37 40 38 36 34 30 28 24 19 17 18 20 21 21 19 17 15 13 12 11
7 1 4 5 6 4 7 7 2 2 3 4 4 6 6 7 9 9 9 20 26 24 26 36 37 39 39 36 32 30 26 21 17 16 17 18 19 21 20 18 18 15 13 12
5 4 5 4 5 8 3 2 4 4 4 5 1 6 7 9 9 9 13 25 23 24 31 28 34 35 37 36 32 29 24 21 17 17 17 17 17 19 20 21 20 18 14 12
9 6 5 9 2 2 6 7 6 5 5 2 3 8 5 8 10 12 18 22 17 18 24 31 32 34 36 36 34 29 22 21 16 16 17 16 15 18 18 20 19 20 17 14
9 3 2 7 7 5 3 6 4 5 4 6 5 8 2 4 8 13 13 16 14 12 15 25 29 33 34 33 32 29 22 19 18 16 15 16 16 17 17 19 18 18 17 14
12 4 8 12 9 6 6 7 7 7 4 4 7 13 17 9 8 11 20 20 21 17 21 24 27 32 33 31 30 28 21 22 20 15 16 18 19 16 15 17 19 16 15 12
5 8 7 10 8 8 6 7 10 8 11 7 15 9 16 13 11 23 29 27 23 23 24 28 31 34 33 30 28 24 21 21 21 18 19 18 18 18 17 19 18 16 13 13
4 1 4 6 6 9 6 6 9 6 3 8 6 10 9 22 18 21 26 20 21 24 25 30 31 32 35 28 24 21 23 22 22 21 19 18 18 21 23 21 19 17 15 17
2 4 3 6 3 7 2 9 9 6 5 7 6 11 4 4 8 22 24 22 25 21 25 31 34 34 36 31 25 25 25 26 25 22 20 21 22 24 23 21 20 19 18 14
3 3 3 2 2 3 8 2 6 10 6 8 5 8 8 10 20 24 21 23 24 22 21 32 33 32 37 36 28 26 27 28 26 24 24 24 25 24 23 21 21 19 18 15
3 4 3 4 4 5 4 3 5 7 8 7 9 10 9 3 5 23 24 24 25 20 21 25 29 30 34 33 29 29 31 28 28 28 29 26 26 25 25 25 23 20 17 15
5 4 3 3 4 7 3 8 20 2 4 7 8 8 5 6 3 10 12 16 16 15 16 19 24 30 33 32 29 33 32 31 31 31 31 28 26 26 26 25 23 21 20 18
3 3 4 3 3 4 7 21 13 4 5 16 6 17 12 7 9 3 5 14 13 16 18 19 22 29 29 30 31 33 32 32 31 30 31 32 29 27 25 23 23 20 21 21
3 3 2 1 1 5 24 9 2 10 27 21 19 17 22 31 4 2 10 18 16 18 21 22 23 28 28 29 31 33 31 30 31 31 32 31 32 31 28 25 24 22 22 22
1 4 3 5 4 3 8 6 17 20 20 15 16 15 12 21 16 11 5 21 15 19 21 23 24 29 30 29 31 30 29 30 29 31 32 33 31 30 29 27 24 25 25 24
2 1 2 2 2 6 7 26 28 30 24 14 7 6 7 5 3 2 7 16 21 22 19 20 27 33 32 31 31 28 29 29 29 29 30 32 33 33 32 30 27 26 26 26
4 3 1 2 6 11 4 26 27 30 27 15 10 6 5 5 9 10 8 6 13 20 24 18 16 17 22 28 29 32 30 30 30 29 28 30 31 31 31 32 28 27 25 25
1 3 3 5 3 3 11 27 26 27 26 23 14 7 9 8 10 13 15 13 11 10 11 16 13 10 15 20 23 28 30 30 29 30 30 28 32 32 32 32 31 29 28 27
Wind_Direction
178 120 208 228 194 215 79 294 281 222 224 176 230 230 198 197 208 208 211 211 219 224 225 226 226 223 218 219 219 222 221 214 208 209 210 214 218 215 219 222 217 222 236 242
67 234 216 235 214 228 207 258 273 280 184 169 11 275 241 197 217 218 213 215 220 224 225 226 226 228 220 225 223 222 222 222 217 216 220 218 217 219 220 214 212 216 235 250
166 238 186 190 234 237 236 216 259 241 96 86 353 284 221 234 219 222 227 228 225 221 223 220 224 227 225 225 229 230 225 222 221 220 222 218 217 218 216 213 213 215 235 251
218 227 248 204 261 150 267 214 245 257 90 249 42 283 269 221 231 222 220 216 221 220 224 223 222 225 226 224 227 230 230 227 223 219 219 220 222 223 222 218 218 230 247 250
225 167 163 200 241 154 242 18 184 113 85 357 350 56 266 43 271 239 222 216 215 223 222 222 223 225 229 227 227 226 226 226 223 221 218 220 224 230 225 225 227 229 233 244
210 220 156 146 132 165 166 77 47 28 48 349 347 147 282 227 223 268 216 213 219 222 221 224 223 226 226 229 226 224 224 229 225 219 219 216 225 228 220 213 217 224 238 256
312 213 138 135 91 37 74 63 342 341 12 228 344 338 246 264 246 237 225 205 215 219 221 221 219 222 224 226 224 222 222 227 225 221 222 220 221 223 218 216 221 218 223 228
169 255 163 172 161 179 191 150 164 208 219 271 146 243 251 219 269 243 245 223 215 214 217 221 222 221 224 222 223 220 220 223 225 224 224 222 219 218 217 219 219 217 212 201
144 246 215 196 159 145 195 189 179 105 16 28 250 291 294 265 278 232 221 212 218 220 224 223 222 223 222 221 224 220 218 221 224 228 224 222 218 215 214 214 212 209 208 209
201 186 216 210 108 59 170 155 85 15 187 269 274 279 238 283 255 230 228 223 224 228 227 223 223 222 224 223 225 218 218 221 225 226 223 223 220 215 211 212 208 202 198 203
128 119 277 76 190 167 154 200 63 125 138 190 295 268 221 242 248 231 231 233 225 226 224 222 224 223 224 220 224 220 214 209 218 223 221 222 217 211 210 214 210 206 202 208
200 145 184 205 181 263 169 178 152 141 235 213 150 271 231 244 258 218 248 242 232 256 234 225 223 221 220 221 221 218 218 204 212 219 220 219 216 209 205 204 207 208 204 214
173 196 88 340 357 359 197 201 151 109 85 204 147 264 248 304 275 228 230 239 228 233 216 209 214 216 216 217 215 209 210 202 210 215 216 208 205 199 202 204 200 201 206 210
158 139 168 218 204 160 183 205 177 142 139 187 221 264 283 268 256 235 231 229 239 227 219 209 206 209 210 210 206 206 197 203 208 215 213 205 202 200 199 197 194 192 198 210
114 193 173 227 185 170 209 186 167 180 219 171 253 203 260 274 230 241 236 232 231 218 210 213 209 204 203 203 203 201 198 201 210 218 215 202 198 197 190 185 180 185 195 189
1 276 177 272 148 195 206 211 180 214 158 256 274 285 262 272 263 253 234 232 221 219 215 212 210 204 203 192 196 192 201 203 211 214 206 195 195 186 182 182 186 191 190 193
80 123 99 253 171 132 289 218 200 205 193 176 178 231 176 263 248 246 243 224 230 235 223 214 212 204 199 190 192 193 193 202 209 209 194 184 178 178 183 189 195 198 197 211
138 99 115 182 45 201 240 205 191 194 240 227 280 260 231 228 258 252 249 228 241 251 230 219 213 209 206 199 191 186 192 201 206 203 188 185 184 184 187 195 200 203 210 216
164 128 100 145 196 284 301 185 170 166 254 204 222 261 283 216 230 266 253 240 247 248 237 225 212 211 203 197 200 192 199 202 206 209 197 191 191 190 192 196 200 202 216 220
82 74 124 139 159 194 261 332 333 265 273 243 208 252 234 181 142 256 272 231 236 228 217 213 207 212 209 202 205 196 202 206 205 208 205 196 200 200 200 201 204 211 211 221
34 18 169 158 197 286 334 312 304 169 251 322 255 262 234 207 227 257 223 195 205 212 206 200 205 213 208 209 211 204 207 211 210 212 213 207 208 213 214 213 211 215 218 219
149 124 216 114 163 264 356 5 8 312 300 305 297 283 252 232 335 338 190 190 195 199 206 210 202 206 215 217 216 213 213 217 211 215 216 218 214 217 223 222 223 225 223 224
211 168 188 165 205 223 354 342 341 350 325 329 316 312 286 252 256 276 213 209 209 193 195 204 210 213 212 212 218 219 221 219 217 217 221 220 225 224 226 224 226 229 230 230
329 84 122 79 249 301 323 1 5 9 2 8 338 333 316 288 311 316 216 198 188 192 197 200 211 219 218 215 219 218 227 228 221 224 224 223 224 224 226 228 229 231 233 234
228 359 140 310 312 337 294 1 358 358 4 22 36 16 29 35 66 74 98 159 191 202 203 203 205 219 226 227 223 225 227 235 231 222 226 230 227 228 230 230 230 230 236 239
236 195 142 212 218 266 299 333 341 349 356 358 6 43 65 67 76 90 93 102 113 134 168 195 206 218 229 229 229 231 229 235 235 229 224 227 229 228 230 231 232 232 235 242